CZ-2D DEB

Satellite information

Favourite Embed

Satellite Type and Status

DEBRISIN ORBIT

Key statistics

Satellite CZ-2D DEB at a glance.

Uptime

3320

Days in orbit

Revolutions

≈ 14.0

Per day

Orbit

SSO

Sun Synchronous Orbit

Inclination

98.5

Latest

Satellite identification and parameters

Extended collection of information and parameters for CZ-2D DEB.

Object identification

Identified? True

Debris? True

Object name: CZ-2D DEB

International designator: 2016-068G

Object number (NORAD): 44607

Object ID (CCSDS): 44607

Country: PEOPLES REPUBLIC OF CHINA (PRC)

Current information (Y/N): Y

RCS size: SMALL

Orbital parameters

Period: 103.106 minutes

Inclination: 98.4923 deg

SMA: 7283.666 km

Apoapsis: 1053.67 km

Periapsis: 757.393 km

RAAN: 128.6971 deg

Eccentricy: 0.02033848

Argument of periapsis: 332.1664 deg

Mean anomaly: 26.8735 deg

Mean motion: 13.96618188 rev/day

Mean motion (dot): 0.00000692 rev/day2

B* drag term: 0.00044444274 1/REarth

Two-line elements (TLE)

Creation date: Dec. 12, 2025, 10:14 a.m.

Reference frame: TEME

Reference center: EARTH

Epoch: Dec. 12, 2025, 5:40 a.m. UTC

TLE line 0: 0 CZ-2D DEB

TLE line 1: 1 44607U 16068G 25346.23630287 .00000692 00000-0 44444-3 0 9993

TLE line 2: 2 44607 98.4923 128.6971 0203385 332.1664 26.8735 13.96618188454733

Live tracking on map

Real-time ground track for satellite CZ-2D DEB.

In-orbit conjunctions

A list of the most updated potential collisions computed for object CZ-2D DEB.

Target Orbit TCA Probability of collision Miss distance Type
FENGYUN 1C DEB SSO 2025-07-12 03:08:40 0.0001059872 450.0 (m) DEBRIS
NOAA 16 DEB SSO 2024-08-28 01:37:01 0.000109769 393.0 (m) DEBRIS
ATLAS 2AS CENTAUR R/B LEO 2024-07-18 08:00:45 0.0002496571 715.0 (m) ROCKET BODY

Associated space launch

The Yunhai-1 satellite is designed for detecting environmental elements in the atmosphere and ocean, the space environment, disaster prevention and reduction, and scientific experimentation. It is made by the Shanghai Institute of Spaceflight Technology.

CZ-2D DEB was lifted into orbit during the mission ‘Long March 2D | YunHai 1-01’, on board a Long March 2D space rocket.

The launch took place on Nov. 11, 2016, 11:14 p.m. from Launch Area 94 (SLS-2 / 603).

For more information about the launch, click the button.

Launch to space Long March 2D | YunHai 1-01
Long March 2D | YunHai 1-01

Agency: N/A

Status: Launch Successful

Launch date: Nov. 11, 2016, 11:14 p.m. UTC

Rocket: Long March 2D

Launch pad: Launch Area 94 (SLS-2 / 603)

Location: Jiuquan Satellite Launch Center, People's Republic of China

...

Latest news about this satellite

There are no fresh news available about this satellite. Check back as we update our databases every day.


Newsletter sign-up

Weekly statistics, charts and insights to help you stay on top of the space industry.